Available Load Listing

Click here to view advanced filters and to manage your preferences
Use the boxes above the column to filter results. Clicking the heading will sort
Load# Call Available Origin City State Destination City State Dlv Dt Equip
LID2793223 855-494-2048 2018-02-07 GRAND PRAIRIE TX PINEHURST TX 2018-02-08 V
LID2789429 336-310-0314 2018-02-09 BORGER TX BORGER TX 2018-02-12 PWR
LID2799332 866-234-1434 2018-02-10 vermillion SD BRYAN TX 2018-02-14 FD
LID2803506 360-588-4889 2018-02-15 MADILL OK CONROE TX 2018-02-16 FD
LID2807976 866-234-1434 2018-02-16 LARNED KS MADISONVILLE TX 2018-02-17 FD
LID2803528 360-588-4889 2018-02-16 NORMAN OK HOUSTON TX 2018-02-19 V
LID2803497 360-588-4889 2018-02-16 MADILL OK CONROE TX 2018-02-19 FD
LID2810795 866-234-1434 2018-02-16 GREENSBURG KS HARPER TX 2018-02-17 FD
LID2803494 360-588-4889 2018-02-16 MADILL OK HOUSTON TX 2018-02-19 FD
LID2821053 855-235-1419 2018-02-18 FREDERICK MD MIDLOTHIAN TX 2018-02-25 V
LID2790840 360-588-4889 2018-02-19 MADILL OK VICTORIA TX 2018-02-20 FD
LID2803686 855-494-2048 2018-02-19 ENNIS TX VIDOR TX 2018-02-20 F
LID2774197 360-588-4889 2018-02-19 MADILL OK LLANO TX 2018-02-20 FD
LID2777747 360-588-4889 2018-02-19 MADILL OK ODESSA TX 2018-02-20 FD
LID2803544 888-215-6538 2018-02-20 SHERMAN TX AMARILLO TX 2018-02-21 F
LID2815700 360-588-4889 2018-02-20 NORMAN OK AMARILLO TX 2018-02-21 FD
LID2803543 888-215-6538 2018-02-20 SHERMAN TX AMARILLO TX 2018-02-21 F
LID2803540 888-215-6538 2018-02-20 SHERMAN TX AMARILLO TX 2018-02-21 F
LID2815660 360-588-4889 2018-02-20 NORMAN OK WOLFFORTH TX 2018-02-21 FD
LID2803541 888-215-6538 2018-02-20 SHERMAN TX AMARILLO TX 2018-02-21 F
LID2812993 866-234-1434 2018-02-20 LARNED KS MADISONVILLE TX 2018-02-21 FD
LID2818390 866-206-4556 2018-02-20 El Dorado AR GRANDVIEW TX 2018-02-21 F
LID2801171 888-215-6538 2018-02-20 LACASSINE LA TEMPLE TX 2018-02-21 F
LID2815634 360-588-4889 2018-02-20 TULSA OK LUBBOCK TX 2018-02-21 FD
LID2815248 937-827-0199 2018-02-21 ERIE PA FORT WORTH TX 2018-02-23 FD
LID2819142 866-234-1434 2018-02-21 LYONS KS ROCKDALE TX 2018-02-22 FD
LID2818846 360-588-4889 2018-02-21 NORMAN OK BALCH SPRINGS TX 2018-02-22 FD
LID2820063 336-310-4465 2018-02-21 WEST HELENA AR BIG SPRING TX 2018-02-22 V
LID2816102 801-386-0472 2018-02-21 INDIANAPOLIS IN GRAND PRAIRIE TX 2018-02-23 V
LID2795345 855-494-2049 2018-02-21 PITTSBORO IN HOUSTON TX 2018-02-26 F
LID2815943 866-234-1434 2018-02-21 cunningham KS MADISONVILLE TX 2018-02-22 FD
LID2815497 937-827-0199 2018-02-21 CLEVELAND OH FORT WORTH TX 2018-02-23 FD
LID2818605 360-588-4889 2018-02-21 NORMAN OK DALLAS TX 2018-02-22 FD
LID2808129 847-463-5128 2018-02-21 GRAND SALINE TX ODESSA TX 2018-02-21 FD
LID2792291 360-588-4889 2018-02-21 MADILL OK HOUSTON TX 2018-02-22 FD
LID2820170 336-310-4465 2018-02-21 WEST HELENA AR LITTLEFIELD TX 2018-02-22 V
LID2815664-2 708-332-0526 2018-02-21 HAZLEHURST MS CARTHAGE TX 2018-02-22 F
LID2819735 336-310-0327 2018-02-21 MOLINE IL LA PORTE TX 2018-02-26 V
LID2820082 336-310-4465 2018-02-21 WEST HELENA AR ABERNATHY TX 2018-02-22 V
LID2819148 866-234-1434 2018-02-21 LYONS KS ROCKDALE TX 2018-02-22 FD
LID2816274 855-494-2048 2018-02-22 ENNIS TX HOUSTON TX 2018-02-22 F
LID2818404 336-310-4465 2018-02-22 ROUND ROCK TX WACO TX 2018-02-22 F
LID2815542 847-463-5128 2018-02-22 SOUTH HUTCHINSON KS GRAND SALINE TX 2018-02-23 VR
LID2819479 843-410-1279 2018-02-22 Seminole TX WHARTON TX 2018-02-23 V
LID2821114 336-822-7860 2018-02-22 ENNIS TX ABILENE TX 2018-02-23 VA
LID2819149 866-234-1434 2018-02-22 LYONS KS ROCKDALE TX 2018-02-23 FD
LID2795285 855-494-2049 2018-02-22 PITTSBORO IN HOUSTON TX 2018-02-26 F
LID2820872 855-494-2049 2018-02-22 JACKSONVILLE FL BROWNSVILLE TX 2018-02-26 F
LID2821327 813-440-2250 2018-02-22 CATOOSA OK ALVARADO TX 2018-02-23 FA
LID2816939 855-494-2048 2018-02-22 ENNIS TX HOUSTON TX 2018-02-22 F
LID2816858 855-494-2049 2018-02-22 HOUSTON TX FORT WORTH TX 2018-02-23 V
LID2821321 855-494-2048 2018-02-22 GRAND PRAIRIE TX KYLE TX 2018-02-23 V
LID2813711 844-619-9572 2018-02-22 PASADENA TX HEREFORD TX 2018-02-23 V
LID2803489 360-588-4889 2018-02-22 MADILL OK CONROE TX 2018-02-23 FD
LID2813955 855-494-2048 2018-02-22 ENNIS TX KATY TX 2018-02-22 F
LID2821336 937-827-0199 2018-02-22 ATCHISON KS FORT WORTH TX 2018-02-23 F
LID2821174 847-463-5128 2018-02-22 EVANS GA LAREDO TX 2018-02-26 V
LID2816574 843-278-2454 2018-02-22 RACINE WI FORT WORTH TX 2018-02-26 V
LID2816577 843-278-2454 2018-02-22 RACINE WI FORT WORTH TX 2018-02-26 V
LID2815944 866-234-1434 2018-02-22 LARNED KS MADISONVILLE TX 2018-02-23 FD
LID2820638 866-637-8600 2018-02-22 ROSELAND LA HOUSTON TX 2018-02-23 V
LID2820801 855-494-2049 2018-02-22 DURHAM NC KATY TX 2018-02-26 V
LID2821011 844-619-9572 2018-02-22 LAREDO TX San Antonio TX 2018-02-23 V
LID2818071 855-494-2049 2018-02-22 EDGERTON KS KATY TX 2018-02-26 V
LID2819316 937-827-0198 2018-02-22 RUSTON LA SAN ANTONIO TX 2018-02-23 V
LID2821453 937-827-0198 2018-02-22 WINCHESTER KY Ennis TX 2018-02-26 F
LID2819150 866-234-1434 2018-02-23 LYONS KS ROCKDALE TX 2018-02-24 FD
LID2816629 843-278-2454 2018-02-23 RACINE WI FORT WORTH TX 2018-02-26 V
LID2821097 855-494-2049 2018-02-23 WASHINGTON MO KATY TX 2018-02-21 V
LID2821570 336-310-0327 2018-02-23 Cantonment FL EL PASO TX 2018-02-26 V
LID2816639 843-278-2454 2018-02-23 RACINE WI FORT WORTH TX 2018-02-26 V
LID2808556 855-494-2048 2018-02-23 Ennis TX MIDLAND TX 2018-02-26 F
LID2820157 855-211-4702 2018-02-23 CHARLOTTE NC VALLEY MILLS TX 2018-02-27 V
LID2813747 844-373-5795 2018-02-23 LONDONDERRY NH COPPELL TX 2018-02-27 RT
LID2803479 360-588-4889 2018-02-23 MADILL OK CONROE TX 2018-02-26 FD
LID2816587 843-278-2454 2018-02-23 RACINE WI FORT WORTH TX 2018-02-26 V
LID2816238 214-222-5431 2018-02-23 INDIANAPOLIS IN FORT WORTH TX 2018-02-26 RGN
LID2819483 844-797-8188 2018-02-23 DES PLAINES IL GRAND PRAIRIE TX 2018-02-26 RZ
LID2819973 855-494-2049 2018-02-23 HOUSTON TX FORT WORTH TX 2018-02-24 V
LID2818212 937-827-0198 2018-02-23 Effingham SC Rosharon TX 2018-02-26 V
LID2821224 855-494-2048 2018-02-23 DALLAS TX HARLINGEN TX 2018-02-26 F
LID2816251-2 214-222-5431 2018-02-23 INDIANAPOLIS IN FORT WORTH TX 2018-02-26 SD
LID2808555 855-494-2048 2018-02-23 Ennis TX MIDLAND TX 2018-02-26 F
LID2821116 855-494-2049 2018-02-23 WASHINGTON MO KATY TX 2018-02-21 V
LID2816251-1 214-222-5431 2018-02-23 INDIANAPOLIS IN FORT WORTH TX 2018-02-26 SD
LID2806215 855-494-2048 2018-02-23 Ennis TX LONGVIEW TX 2018-02-23 F
LID2809610 844-797-8188 2018-02-23 DALLAS TX FORT WORTH TX 2018-02-23 V
LID2819932 937-827-0198 2018-02-23 WATERBURY CT PHARR TX 2018-02-26 V
LID2820904 844-619-9572 2018-02-23 Tampa FL San Antonio TX 2018-02-26 V
LID2819204 479-203-5523 2018-02-24 GREENWOOD IN TEMPLE TX 2018-02-25 V
LID2818034 800-500-4915 2018-02-24 TROY OH HUTCHINS TX 2018-02-26 V
LID2819203 479-203-5523 2018-02-24 GREENWOOD IN LEWISVILLE TX 2018-02-26 V
LID2819199 479-203-5523 2018-02-24 GREENWOOD IN LUBBOCK TX 2018-02-26 V
LID2819196 479-203-5523 2018-02-24 GREENWOOD IN WACO TX 2018-02-26 V
LID2819194 479-203-5523 2018-02-24 GREENWOOD IN COPPELL TX 2018-02-26 V
LID2819629 800-500-4915 2018-02-24 TROY OH HUTCHINS TX 2018-02-26 V
LID2819630 800-500-4915 2018-02-25 TROY OH HUTCHINS TX 2018-02-27 V
LID2820589 800-500-4915 2018-02-25 TROY OH HUTCHINS TX 2018-02-27 V
LID2820588 800-500-4915 2018-02-25 TROY OH HUTCHINS TX 2018-02-27 V
LID2808445 855-494-2048 2018-02-26 Ennis TX LONGVIEW TX 2018-02-27 F
LID2820152 404-602-9292 2018-02-26 LOUISVILLE KY SAN ANTONIO TX 2018-03-01 RT
LID2816477 855-494-2048 2018-02-26 Ennis TX MIDLAND TX 2018-02-27 F
LID2816772 843-278-2454 2018-02-26 RACINE WI FORT WORTH TX 2018-02-28 V
LID2816313 800-347-0405 2018-02-26 OMAHA NE AMARILLO TX 2018-02-28 VR
LID2816766 843-278-2454 2018-02-26 RACINE WI FORT WORTH TX 2018-02-28 V
LID2789421 800-347-0405 2018-02-26 OSAGE IA LAREDO TX 2018-02-28 VR
LID2820446 855-494-2049 2018-02-26 HOUSTON TX AMARILLO TX 2018-02-27 SD
LID2814289 937-827-0201 2018-02-26 IRVING TX Katy TX 2018-02-27 F
LID2816491 855-494-2048 2018-02-26 Ennis TX MIDLAND TX 2018-02-27 F
LID2816469 855-494-2049 2018-02-26 OLIVE BRANCH MS KATY TX 2018-02-20 V
LID2819808 855-494-2048 2018-02-26 Ennis TX MIDLAND TX 2018-02-27 F
LID2819530 314-401-6863 2018-02-27 SANTA TERESA NM HOUSTON TX 2018-02-28 V
LID2819811 855-494-2048 2018-02-27 Ennis TX MIDLAND TX 2018-02-28 F
LID2816197 336-310-4465 2018-02-27 MEMPHIS TN PLAINVIEW TX 2018-03-01 V
LID2820769 847-463-5128 2018-02-27 SOUTH HUTCHINSON KS LAREDO TX 2018-03-01 V
LID2819814 855-494-2048 2018-02-27 Ennis TX MIDLAND TX 2018-02-28 F
LID2809579 888-285-4514 2018-02-27 NEOSHO MO MESQUITE TX 2018-02-28 V
LID2821013 404-602-9292 2018-02-27 LOUISVILLE KY DALLAS TX 2018-03-02 RT
LID2819810 855-494-2048 2018-02-27 Ennis TX MIDLAND TX 2018-02-28 F
LID2820132 888-215-6538 2018-02-27 SHERMAN TX JASPER TX 2018-02-28 F
LID2809686 888-285-4514 2018-02-27 NEOSHO MO MESQUITE TX 2018-02-28 V
LID2809710 888-285-4514 2018-02-27 NEOSHO MO MESQUITE TX 2018-02-28 V
LID2816326 336-310-4465 2018-02-27 MEMPHIS TN NEW BRAUNFELS TX 2018-02-28 V
LID2819815 855-494-2048 2018-02-28 Ennis TX MIDLAND TX 2018-03-01 F
LID2816882 844-797-8189 2018-02-28 ROCK SPRING GA FLOWER MOUND TX 2018-03-02 V
LID2819821 855-494-2048 2018-02-28 Ennis TX MIDLAND TX 2018-03-01 F
LID2819816 855-494-2048 2018-02-28 Ennis TX MIDLAND TX 2018-03-01 F
LID2820133 888-215-6538 2018-02-28 SHERMAN TX SAN AUGUSTINE TX 2018-03-01 F
LID2819847 855-494-2048 2018-03-01 Ennis TX LUBBOCK TX 2018-03-02 F
LID2797367 479-203-5234 2018-03-01 Boron CA ROSENBERG TX 2018-03-01 V
LID2820910 937-827-0199 2018-03-01 HANOVER PARK IL LAREDO TX 2018-03-05 V
LID2816492 855-494-2048 2018-03-01 Ennis TX ODESSA TX 2018-03-02 F
LID2820621 844-619-9572 2018-03-01 HOUSTON TX TEMPLE TX 2018-03-02 RT
LID2819845 855-494-2048 2018-03-01 Ennis TX LUBBOCK TX 2018-03-02 F
LID2819089 636-591-9021 2018-03-09 KINSTON NC LAREDO TX 2018-03-12 V
LID2734983 336-308-2028 2018-03-12 SURING WI AUSTIN TX 2018-03-15 V
LID2596674 844-797-8188 2019-12-05 DALLAS TX FORT WORTH TX 2020-01-08 DRT
LID2309682 844-797-8188 2019-12-31 DALLAS TX FORT WORTH TX 2020-01-01 V
LID2595783 844-797-8188 2019-12-31 DALLAS TX FORT WORTH TX 2020-01-01 V
LID2413848 844-797-8188 2019-12-31 MISSOURI CITY TX FORT WORTH TX 2020-01-01 V
LID2413913 844-797-8188 2019-12-31 HOUSTON TX FORT WORTH TX 2020-01-01 V
LID2651896 844-797-8188 2019-12-31 DALLAS TX FORT WORTH TX 2020-01-01 V